Regional Weather Roundup
Issued by NWS

Home | Current Version | Previous Version | Text Only | Print | Product List | Glossary On
Versions: 1 2 3 4 5 6 7 8 9 10 11 12 13 14 15 16 17 18 19 20 21 22 23 24 25 26 27 28 29 30 31 32 33 34 35 36 37 38 39 40 41 42 43 44 45 46 47 48 49 50
000
ASUS45 KBOI 191510
RWRID

IDAHO REGIONAL WEATHER ROUNDUP
NATIONAL WEATHER SERVICE BOISE ID
900 AM MDT TUE SEP 19 2017

NOTE: "FAIR" INDICATES FEW OR NO CLOUDS BELOW 12000 FEET
WITH NO SIGNIFICANT WEATHER AND/OR OBSTRUCTIONS TO VISIBILITY

IDZ012-014-191600-
SOUTHWEST IDAHO


CITY           SKY/WX    TMP DP  RH WIND       PRES   REMARKS
BOISE          CLOUDY    49  42  77 SE5       29.88R
CALDWELL       CLOUDY    49  44  83 E5        29.87S
MOUNTAIN HOME  PTSUNNY   48  43  84 CALM        N/A
$$

IDZ016-017-191600-
SOUTHCENTRAL IDAHO


CITY           SKY/WX    TMP DP  RH WIND       PRES   REMARKS
BURLEY         MOSUNNY   47  38  71 SW9       29.87R
JEROME         CLOUDY    44  42  93 W7        29.89R
TWIN FALLS     MOSUNNY   47  40  76 SW13      29.88R
$$

IDZ019>023-191600-
SOUTHEAST IDAHO


CITY           SKY/WX    TMP DP  RH WIND       PRES   REMARKS
IDAHO FALLS    PTSUNNY   41  37  86 SW18G28   29.83R
POCATELLO      MOSUNNY   45  39  79 SW14      29.87R
REXBURG        CLOUDY    41  37  86 SW16G23   29.81R
$$

IDZ006-010-011-018-031-032-191600-
CENTRAL IDAHO MOUNTAINS


CITY           SKY/WX    TMP DP  RH WIND       PRES   REMARKS
MCCALL         CLOUDY    36  35  96 SE8       29.80R WCI  30
HAILEY         PTSUNNY   36  36 100 SE5       29.78F WCI  32
STANLEY          N/A     33  32  96 SE7       29.82S WCI  27
SALMON         LGT RAIN  43  40  89 SE5       29.79S
CHALLIS        CLOUDY    38  37  97 CALM      29.79S
$$

IDZ002-004-006-007-026-191600-
NORTHERN IDAHO


CITY           SKY/WX    TMP DP  RH WIND       PRES   REMARKS
LEWISTON       CLOUDY    51  48  89 CALM      29.75S
LOWELL           N/A     46  44  93 N3        29.82R
COEUR D`ALENE  RAIN      44  42  93 SW7       29.73R
MULLAN PASS    SNOW      31  30  96 VRB3      29.69F VSB 1/4
$$



USA.gov is the U.S. government's official web portal to all federal, state and local government web resources and services.